This is the latest recevied weather packets stored in our database for station/object KE5WTH-14. If no packets are shown the sender has not sent any weather packets the latest 1 day(s).
| Time | Temp. | Humidity | Pressure | Rain* | Wind** | Luminosity | Snow |
|---|---|---|---|---|---|---|---|
| 1778052752 | 13.89° C | 76% | 1009.8 hPa | 0 mm | 1.79 m/s, 23° | 0 W/m² | - |
| 1778052694 | 13.89° C | 76% | 1009.7 hPa | 0 mm | 2.24 m/s, 20° | 0 W/m² | - |
| 1778052632 | 13.89° C | 77% | 1009.7 hPa | 0 mm | 2.24 m/s, 68° | 0 W/m² | - |
| 1778052573 | 13.89° C | 77% | 1009.7 hPa | 0 mm | 1.79 m/s, 3° | 0 W/m² | - |
| 1778052513 | 13.89° C | 77% | 1009.8 hPa | 0 mm | 1.79 m/s, 0° | 0 W/m² | - |
| 1778052451 | 13.89° C | 77% | 1009.9 hPa | 0 mm | 2.24 m/s, 13° | 0 W/m² | - |
| 1778052409 | 13.89° C | 77% | 1009.9 hPa | 0 mm | 2.24 m/s, 18° | 0 W/m² | - |
| 1778052379 | 13.89° C | 77% | 1009.8 hPa | 0 mm | 2.24 m/s, 24° | 0 W/m² | - |
| 1778052350 | 13.89° C | 77% | 1009.8 hPa | 0 mm | 1.79 m/s, 0° | 0 W/m² | - |
| 1778052325 | 13.89° C | 77% | 1009.8 hPa | 0 mm | 1.79 m/s, 11° | 0 W/m² | - |
| 1778052151 | 13.89° C | 77% | 1009.8 hPa | 0 mm | 2.68 m/s, 13° | 0 W/m² | - |
| 1778052114 | 13.89° C | 77% | 1009.7 hPa | 0 mm | 2.68 m/s, 16° | 0 W/m² | - |
| 1778052084 | 13.89° C | 77% | 1009.8 hPa | 0 mm | 2.68 m/s, 16° | 0 W/m² | - |
| 1778052052 | 13.89° C | 77% | 1009.8 hPa | 0 mm | 2.68 m/s, 6° | 0 W/m² | - |
| 1778052023 | 13.89° C | 77% | 1009.8 hPa | 0 mm | 2.24 m/s, 27° | 0 W/m² | - |
| 1778051853 | 13.89° C | 77% | 1009.8 hPa | 0 mm | 2.24 m/s, 34° | 0 W/m² | - |
| 1778051794 | 13.89° C | 77% | 1009.8 hPa | 0 mm | 2.24 m/s, 13° | 0 W/m² | - |
| 1778051729 | 13.89° C | 77% | 1009.8 hPa | 0 mm | 2.68 m/s, 30° | 0 W/m² | - |
| 1778051668 | 13.89° C | 77% | 1009.9 hPa | 0 mm | 2.68 m/s, 334° | 0 W/m² | - |
| 1778051606 | 13.89° C | 77% | 1009.9 hPa | 0 mm | 2.68 m/s, 336° | 0 W/m² | - |
| 1778051545 | 13.89° C | 77% | 1009.9 hPa | 0 mm | 2.68 m/s, 0° | 0 W/m² | - |
| 1778051482 | 13.89° C | 77% | 1010 hPa | 0 mm | 2.24 m/s, 0° | 0 W/m² | - |
| 1778051421 | 13.89° C | 77% | 1010 hPa | 0 mm | 2.24 m/s, 20° | 0 W/m² | - |
| 1778051359 | 13.89° C | 77% | 1010 hPa | 0 mm | 2.68 m/s, 3° | 0 W/m² | - |
| 1778051298 | 13.89° C | 77% | 1010 hPa | 0 mm | 2.68 m/s, 39° | 0 W/m² | - |
* Rain latest hour (hover to see other rain measurements)
** Current wind speed in m/s (hover to see current wind gust speed)